Flight Track Log - Related Links

Times and Time Zones

All times are in EDT time to prevent confusion due to time zone crossing. See the SWA1319 flight status page for this flight to view local times or setup timezone preferences in your user account.

Time Position Orientation Groundspeed Altitude Reporting Facility
EDT Latitude Longitude Course Direction KTS MPH feet Rate Location/Type
08:36AM 42.9500 -71.4167 20° North 165 190 1,400  Level KA90
08:37AM 42.9833 -71.4000 20° North 205 236 2,800 2,593 Climbing KA90
08:39AM 43.0381 -71.2272 67° East 250 288 8,400 2,645 Climbing Boston Center
08:40AM 43.0578 -71.1272 75° East 283 326 11,000 2,250 Climbing Boston Center
08:41AM 43.0728 -70.9906 81° East 313 360 12,900 2,050 Climbing Boston Center
08:42AM 43.0092 -70.9069 136° Southeast 322 371 15,100 2,300 Climbing Boston Center
08:43AM 42.9008 -70.9236 186° South 304 350 17,500 1,900 Climbing Boston Center
08:44AM 42.8119 -70.9683 200° South 357 411 18,900 1,850 Climbing Boston Center
08:45AM 42.7125 -71.0158 199° South 374 430 21,200 1,900 Climbing Boston Center
08:46AM 42.6150 -71.0633 200° South 380 437 22,700 1,450 Climbing Boston Center
08:47AM 42.5114 -71.1136 200° South 391 450 24,100 1,900 Climbing Boston Center
08:48AM 42.4164 -71.1775 206° Southwest 391 450 26,500 2,350 Climbing Boston Center
08:49AM 42.3614 -71.2964 238° Southwest 369 425 28,800 1,750 Climbing Boston Center
08:50AM 42.3083 -71.4183 240° Southwest 369 425 30,000 1,300 Climbing Boston Center
08:51AM 42.2550 -71.5369 239° Southwest 375 432 31,400 1,450 Climbing Boston Center
08:52AM 42.1975 -71.6442 234° Southwest 369 425 32,900 1,300 Climbing Boston Center
08:53AM 42.1483 -71.7569 240° Southwest 363 418 34,000 550 Climbing Boston Center
08:54AM 42.0967 -71.8636 237° Southwest 358 412 34,000  Level Boston Center
08:55AM 42.0472 -71.9703 238° Southwest 353 406 34,000  Level Boston Center
08:56AM 41.9975 -72.0769 238° Southwest 348 400 34,000  Level Boston Center
08:57AM 41.9478 -72.1861 239° Southwest 348 400 34,000  Level Boston Center
08:58AM 41.8958 -72.2950 237° Southwest 348 400 34,000  Level Boston Center
08:59AM 41.8461 -72.4039 239° Southwest 348 400 34,000  Level Boston Center
09:00AM 41.7939 -72.5097 237° Southwest 348 400 34,000  Level Boston Center
09:01AM 41.7397 -72.6264 238° Southwest 343 395 34,000  Level Boston Center
09:02AM 41.6872 -72.7347 237° Southwest 343 395 34,000  Level Boston Center
09:03AM 41.6369 -72.8428 238° Southwest 343 395 34,000  Level Boston Center
09:04AM 41.5864 -72.9508 238° Southwest 343 395 34,000  Level Boston Center
09:05AM 41.5358 -73.0586 238° Southwest 343 395 34,000  Level Boston Center
09:06AM 41.4917 -73.1494 237° Southwest 334 384 34,000  Level Boston Center
09:07AM 41.4408 -73.2569 238° Southwest 344 396 34,000  Level Boston Center
09:09AM 41.3392 -73.4681 237° Southwest 339 390 34,000  Level New York Center
09:10AM 41.2844 -73.5736 235° Southwest 339 390 34,000  Level New York Center
09:11AM 41.2281 -73.6761 234° Southwest 344 396 34,000  Level New York Center
09:12AM 41.1692 -73.7756 232° Southwest 344 396 34,000  Level New York Center
09:13AM 41.1083 -73.8747 231° Southwest 349 402 34,000  Level New York Center
09:14AM 41.0492 -73.9792 233° Southwest 349 402 34,000  Level New York Center
09:15AM 40.9883 -74.0781 231° Southwest 354 407 34,000 -50 Level New York Center
09:16AM 40.9292 -74.1767 232° Southwest 359 413 33,900 -1,513 Descending New York Center
09:17AM 40.8636 -74.2806 230° Southwest 364 419 31,000 -2,824 Descending New York Center
09:18AM 40.7981 -74.3811 229° Southwest 364 419 28,300 -1,500 Descending New York Center
09:19AM 40.7364 -74.4903 233° Southwest 369 425 28,000 -148 Descending New York Center
09:20AM 40.6747 -74.5936 232° Southwest 369 425 28,000  Level New York Center
09:21AM 40.6108 -74.6967 231° Southwest 369 425 28,000 -303 Level New York Center
09:22AM 40.5428 -74.7992 229° Southwest 369 425 27,400 -1,438 Descending New York Center
09:23AM 40.4728 -74.8989 227° Southwest 369 425 25,100 -2,281 Descending New York Center
09:24AM 40.4003 -75.0008 227° Southwest 374 430 22,800 -2,182 Descending New York Center
09:25AM 40.3344 -75.0975 228° Southwest 374 430 20,700 -2,319 Descending New York Center
09:26AM 40.2617 -75.1989 227° Southwest 367 422 18,200 -1,361 Descending New York Center
09:27AM 40.2039 -75.2931 231° Southwest 360 414 18,000 -99 Descending New York Center
09:28AM 40.1269 -75.3967 226° Southwest 367 422 18,000  Level New York Center
09:29AM 40.0653 -75.4794 226° Southwest 359 413 18,000  Level New York Center
09:30AM 39.9886 -75.5772 224° Southwest 359 413 18,000  Level New York Center
09:31AM 39.9267 -75.6597 226° Southwest 354 407 18,000  Level New York Center
09:32AM 39.8636 -75.7742 234° Southwest 361 415 18,000 -915 Level New York Center
09:33AM 39.8089 -75.8811 236° Southwest 361 415 16,200 -2,150 Descending New York Center
09:34AM 39.7564 -75.9853 237° Southwest 356 410 13,700 -1,351 Descending New York Center
09:36AM 39.6500 -76.1833 235° Southwest 293 337 11,900 -667 Descending Potomac TRACON
09:37AM 39.6000 -76.2833 237° Southwest 290 334 11,600 -942 Descending Potomac TRACON
09:38AM 39.5500 -76.3667 232° Southwest 285 328 10,000 -1,587 Descending Potomac TRACON
09:39AM 39.5167 -76.4500 243° Southwest 281 323 8,400 -1,500 Descending Potomac TRACON
09:40AM 39.5000 -76.5500 258° West 276 318 7,000 -730 Descending Potomac TRACON
09:41AM 39.4667 -76.6333 243° Southwest 272 313 7,000 -574 Level Potomac TRACON
09:42AM 39.4333 -76.7167 243° Southwest 263 303 5,900 -1,250 Descending Potomac TRACON
09:43AM 39.3833 -76.7833 226° Southwest 262 302 4,500 -942 Descending Potomac TRACON
09:44AM 39.3333 -76.8500 226° Southwest 250 288 4,000 -313 Descending Potomac TRACON
09:45AM 39.2833 -76.9000 218° Southwest 244 281 3,900 -53 Descending Potomac TRACON
09:46AM 39.2500 -76.9333 218° Southwest 189 217 3,900 -496 Level Potomac TRACON
09:47AM 39.2000 -76.9667 207° Southwest 190 219 2,900 -730 Descending Potomac TRACON
09:48AM 39.1833 -76.9167 113° Southeast 169 194 2,500 -211 Descending Potomac TRACON
09:49AM 39.1833 -76.8500 90° East 173 199 2,500 -350 Level Potomac TRACON
09:50AM 39.1833 -76.8000 90° East 170 196 1,800 -730 Descending Potomac TRACON
09:51AM 39.1833 -76.7500 90° East 139 160 1,100 -783 Descending Potomac TRACON
09:52AM 39.1833 -76.7000 90° East 139 160 300 -800 Descending Potomac TRACON
09:54AM 39.1667 -76.6667 270° West  Level FlightAware Approximate
10:01AM 39.1754 -76.6683 270° West  Level Estimated
10:02AM 39.1754 -76.6683 270° West  Level Estimated
10:03AM 39.1754 -76.6683 270° West  Level Estimated
10:04AM 39.1754 -76.6683 270° West  Level Estimated

Login

Don't have an account? Register now (free) for customized features, flight alerts, and more!